Flag for U.S.A. Weather past 2 weeks in South Bend, Indiana, U.S.A.

Now
66 °F

Fog.


Feels Like: 66 °F
Forecast: 64 / 80 °F
Wind: 3 mph from North

Location: Michiana Regional Airport

Current Time: Aug 27, 2014 at 5:21:06 AM

Latest Report: Aug 27, 2014 at 4:54 AM


Visibility: 6 mi

Pressure: 30.10 "Hg

Humidity: 93%

Dew point: 64 °F

Location of South BendLocation

Historic Weather in South Bend — Graph

°F

South Bend temperature yesterday

Maximum temperature yesterday: 78 °F (at 6:54 PM)
Minimum temperature yesterday: 69 °F (at 3:54 AM)
Average temperature yesterday: 72 °F

Past Weeks' High & Low Weather Summary

 TemperatureHumidityPressure
High90 °F (Aug 25, 2:02 PM)97% (Aug 23, 5:54 AM)30.17 "Hg (Aug 23, 5:54 AM)
Low47 °F (Aug 15, 4:54 AM)33% (Aug 15, 3:54 PM)29.72 "Hg (Aug 12, 4:54 AM)
Average72 °F76%29.96 "Hg
* Reported Aug 12 4:54 AM — Aug 27 4:04 AM, South Bend, Weather by CustomWeather, © 2014

Note: Actual official high and low records may vary slightly from our data, if they occured in-between our weather recording intervals... More about our weather records

Advertising

South Bend weather history for previous 24 hours

 ConditionsComfort  
Time TempWeatherWind HumidityBarometerVisibility
4:04 AM
Aug 27
65 °FFog.6 mph97%30.11 "Hg3 mi
3:57 AM65 °FFog.5 mph97%30.11 "Hg2 mi
2:54 AM67 °FFog.3 mph93%30.12 "Hg6 mi
1:54 AM66 °FFog.No wind96%30.12 "Hg0 mi
12:54 AM67 °FFog.5 mph90%30.11 "Hg4 mi
11:54 PM
Aug 26
69 °FFog.5 mph93%30.09 "Hg4 mi
11:01 PM71 °FFog.7 mph90%30.11 "Hg6 mi
10:54 PM71 °FFog.8 mph90%30.09 "Hg5 mi
9:54 PM70 °FFog.5 mph90%30.08 "Hg6 mi
8:54 PM72 °FSunny.No wind91%30.07 "Hg9 mi
7:54 PM76 °FPassing clouds.5 mph82%30.06 "Hg10 mi
6:54 PM78 °FSunny.6 mph79%30.07 "Hg10 mi
5:54 PM77 °FSunny.6 mph82%30.05 "Hg10 mi
4:54 PM74 °FSunny.5 mph85%30.06 "Hg10 mi
3:54 PM72 °FPassing clouds.7 mph91%30.09 "Hg8 mi
2:54 PM70 °FThundershowers. Fog.6 mph93%30.08 "Hg6 mi
2:02 PM70 °FThunderstorms. Fog.7 mph93%30.17 "Hg6 mi
1:57 PM71 °FThunderstorms. Cloudy.13 mph90%30.17 "Hg7 mi
12:54 PM75 °FOvercast.7 mph85%30.09 "Hg10 mi
11:54 AM74 °FOvercast.8 mph85%30.11 "Hg10 mi
10:54 AM74 °FThundershowers. Overcast.6 mph82%30.10 "Hg10 mi
9:54 AM74 °FThundershowers. Partly sunny.3 mph79%30.11 "Hg10 mi
8:54 AM72 °FScattered clouds.No wind84%30.09 "Hg10 mi
7:54 AM70 °FPassing clouds.3 mph90%30.08 "Hg8 mi
6:54 AM70 °FPassing clouds.6 mph90%30.07 "Hg10 mi
5:54 AM69 °FPassing clouds.No wind90%30.05 "Hg10 mi
Weather by CustomWeather, © 2014

See weather overviewHow to use our weather pages